This is the latest recevied weather packets stored in our database for station/object OH6GKW. If no packets are shown the sender has not sent any weather packets the latest 10 day(s).
| Time | Temp. | Humidity | Pressure | Rain* | Wind** | Luminosity | Snow |
|---|---|---|---|---|---|---|---|
| 1778141616 | 5.56° C | 75% | 1014 hPa | 0 mm | - | 97 W/m² | - |
| 1778141309 | 6.11° C | 74% | 1014 hPa | 0 mm | - | 88 W/m² | - |
| 1778141024 | 6.11° C | 76% | 1014 hPa | 0 mm | - | 174 W/m² | - |
| 1778140716 | 6.11° C | 76% | 1014 hPa | 0 mm | - | 243 W/m² | - |
| 1778140409 | 6.11° C | 76% | 1014 hPa | 0 mm | - | 250 W/m² | - |
| 1778140121 | 6.11° C | 77% | 1014 hPa | 0 mm | - | 229 W/m² | - |
| 1778139814 | 5.56° C | 77% | 1013.8 hPa | 0 mm | - | 218 W/m² | - |
| 1778139511 | 5.56° C | 78% | 1013.8 hPa | 0 mm | - | 216 W/m² | - |
| 1778139237 | 5.56° C | 78% | 1013.8 hPa | 0 mm | - | 232 W/m² | - |
| 1778138924 | 5.56° C | 78% | 1013.7 hPa | 0 mm | - | 260 W/m² | - |
| 1778138620 | 5.56° C | 78% | 1013.7 hPa | 0 mm | - | 218 W/m² | - |
| 1778138312 | 5.56° C | 78% | 1013.7 hPa | 0 mm | - | 243 W/m² | - |
| 1778138029 | 5.56° C | 79% | 1013.4 hPa | 0 mm | - | 253 W/m² | - |
| 1778137720 | 5.56° C | 79% | 1013.4 hPa | 0 mm | - | 259 W/m² | - |
| 1778137415 | 5.56° C | 78% | 1013.4 hPa | 0 mm | - | 236 W/m² | - |
| 1778137109 | 5.56° C | 78% | 1013.5 hPa | 0 mm | - | 236 W/m² | - |
| 1778136832 | 5.56° C | 77% | 1013.5 hPa | 0 mm | - | 236 W/m² | - |
| 1778136524 | 5.56° C | 76% | 1013.5 hPa | 0 mm | - | 253 W/m² | - |
| 1778136217 | 5.56° C | 75% | 1013.5 hPa | 0 mm | - | 264 W/m² | - |
| 1778135913 | 6.11° C | 75% | 1013.5 hPa | 0 mm | - | 257 W/m² | - |
| 1778135624 | 6.11° C | 75% | 1013.5 hPa | 0 mm | - | 274 W/m² | - |
| 1778135315 | 6.11° C | 74% | 1013.2 hPa | 0 mm | - | 311 W/m² | - |
| 1778135011 | 6.11° C | 74% | 1013.2 hPa | 0 mm | - | 315 W/m² | - |
| 1778134724 | 6.11° C | 73% | 1013.2 hPa | 0 mm | - | 241 W/m² | - |
| 1778134417 | 6.11° C | 75% | 1013.1 hPa | 0 mm | - | 238 W/m² | - |
* Rain since midnight (hover to see other rain measurements)
** Current wind speed in m/s (hover to see current wind gust speed)